When you browse on this site, cookies collect data to enhance your experience and personalize the content and advertising you see.
Visit our Privacy Policy to learn more. By continuing to use the site, you agree to this use of cookies and data.
  • In Hungary
  • List of Countries
  • For 7 days
  • Water Temperature
  • Satellite Maps
  • Weather Map
  • News
  • Weather Widgets
  • user-avatar
    Login

    Hourly Weather Makadi Bey

    Today, 21 April, Sunday

    Time Temperature Precipitation Wind Pressure Humidity
    00:00 +18°C° 0 mm 2 mps 707 mmHg 30%
    01:00 +17°C° 0 mm 2 mps 707 mmHg 32%
    02:00 +16°C° 0 mm 2 mps 706 mmHg 33%
    03:00 +16°C° 0 mm 2 mps 706 mmHg 36%
    04:00 +15°C° 0 mm 2 mps 706 mmHg 38%
    05:00 +14°C° 0 mm 2 mps 706 mmHg 40%
    06:00 +15°C° 0 mm 2 mps 707 mmHg 39%
    07:00 +16°C° 0 mm 2 mps 707 mmHg 38%
    08:00 +17°C° 0 mm 2 mps 707 mmHg 35%
    09:00 +19°C° 0 mm 3 mps 708 mmHg 29%
    10:00 +21°C° 0 mm 4 mps 708 mmHg 22%
    11:00 +22°C° 0 mm 4 mps 708 mmHg 16%
    12:00 +23°C° 0 mm 5 mps 708 mmHg 14%
    13:00 +24°C° 0 mm 6 mps 708 mmHg 13%
    14:00 +24°C° 0 mm 6 mps 708 mmHg 13%
    15:00 +23°C° 0 mm 6 mps 708 mmHg 15%
    16:00 +23°C° 0 mm 5 mps 707 mmHg 16%
    17:00 +22°C° 0 mm 5 mps 707 mmHg 18%
    18:00 +21°C° 0 mm 4 mps 707 mmHg 21%
    19:00 +20°C° 0 mm 4 mps 707 mmHg 24%
    20:00 +19°C° 0 mm 3 mps 707 mmHg 27%
    21:00 +18°C° 0 mm 3 mps 708 mmHg 30%
    22:00 +17°C° 0 mm 2 mps 708 mmHg 33%
    23:00 +17°C° 0 mm 2 mps 708 mmHg 35%

    Tomorrow, 22 April, Monday

    Time Temperature Precipitation Wind Pressure Humidity
    00:00 +16°C° 0 mm 2 mps 708 mmHg 37%
    01:00 +16°C° 0 mm 2 mps 707 mmHg 39%
    02:00 +15°C° 0 mm 1 mps 707 mmHg 40%
    03:00 +14°C° 0 mm 1 mps 707 mmHg 42%
    04:00 +14°C° 0 mm 1 mps 707 mmHg 43%
    05:00 +13°C° 0 mm 1 mps 707 mmHg 45%
    06:00 +14°C° 0 mm 1 mps 707 mmHg 40%
    07:00 +16°C° 0 mm 1 mps 708 mmHg 36%
    08:00 +18°C° 0 mm 1 mps 708 mmHg 31%
    09:00 +19°C° 0 mm 1 mps 708 mmHg 26%
    10:00 +21°C° 0 mm 1 mps 709 mmHg 20%
    11:00 +23°C° 0 mm 1 mps 709 mmHg 15%
    12:00 +24°C° 0 mm 2 mps 709 mmHg 13%
    13:00 +25°C° 0 mm 2 mps 709 mmHg 12%
    14:00 +26°C° 0 mm 2 mps 709 mmHg 10%
    15:00 +26°C° 0 mm 3 mps 708 mmHg 11%
    16:00 +26°C° 0 mm 3 mps 708 mmHg 11%
    17:00 +26°C° 0 mm 3 mps 708 mmHg 12%
    18:00 +24°C° 0 mm 3 mps 708 mmHg 13%
    19:00 +22°C° 0 mm 3 mps 708 mmHg 15%
    20:00 +21°C° 0 mm 3 mps 708 mmHg 17%
    21:00 +20°C° 0 mm 2 mps 708 mmHg 18%
    22:00 +19°C° 0 mm 2 mps 708 mmHg 19%
    23:00 +18°C° 0 mm 2 mps 709 mmHg 20%

    Day after tomorrow, 23 April, Tuesday

    Time Temperature Precipitation Wind Pressure Humidity
    00:00 +18°C° 0 mm 2 mps 708 mmHg 21%
    01:00 +17°C° 0 mm 2 mps 708 mmHg 22%
    02:00 +17°C° 0 mm 2 mps 708 mmHg 23%
    03:00 +16°C° 0 mm 2 mps 708 mmHg 25%
    04:00 +16°C° 0 mm 2 mps 708 mmHg 26%
    05:00 +15°C° 0 mm 2 mps 708 mmHg 28%
    06:00 +17°C° 0 mm 2 mps 708 mmHg 25%
    07:00 +19°C° 0 mm 2 mps 709 mmHg 22%
    08:00 +20°C° 0 mm 3 mps 710 mmHg 19%
    09:00 +22°C° 0 mm 3 mps 710 mmHg 15%
    10:00 +25°C° 0 mm 4 mps 710 mmHg 12%
    11:00 +27°C° 0 mm 5 mps 711 mmHg 8%
    12:00 +28°C° 0 mm 5 mps 710 mmHg 8%
    13:00 +28°C° 0 mm 5 mps 710 mmHg 7%
    14:00 +29°C° 0 mm 5 mps 710 mmHg 7%
    15:00 +29°C° 0 mm 5 mps 709 mmHg 7%
    16:00 +28°C° 0 mm 5 mps 709 mmHg 7%
    17:00 +28°C° 0 mm 5 mps 709 mmHg 7%
    18:00 +26°C° 0 mm 5 mps 709 mmHg 9%
    19:00 +25°C° 0 mm 4 mps 709 mmHg 11%
    20:00 +22°C° 0 mm 3 mps 709 mmHg 12%
    21:00 +22°C° 0 mm 3 mps 709 mmHg 11%
    22:00 +22°C° 0 mm 3 mps 709 mmHg 10%
    23:00 +22°C° 0 mm 3 mps 709 mmHg 9%

    24 April, Wednesday

    Time Temperature Precipitation Wind Pressure Humidity
    00:00 +21°C° 0 mm 3 mps 709 mmHg 9%
    01:00 +21°C° 0 mm 3 mps 708 mmHg 9%
    02:00 +21°C° 0 mm 3 mps 708 mmHg 9%
    03:00 +20°C° 0 mm 4 mps 708 mmHg 11%
    04:00 +20°C° 0 mm 4 mps 708 mmHg 12%
    05:00 +20°C° 0 mm 4 mps 708 mmHg 14%
    06:00 +21°C° 0 mm 4 mps 709 mmHg 13%
    07:00 +23°C° 0 mm 5 mps 709 mmHg 12%
    08:00 +26°C° 0 mm 5 mps 710 mmHg 10%
    09:00 +27°C° 0 mm 6 mps 710 mmHg 10%
    10:00 +29°C° 0 mm 6 mps 711 mmHg 9%
    11:00 +30°C° 0 mm 7 mps 711 mmHg 8%
    12:00 +32°C° 0 mm 7 mps 710 mmHg 8%
    13:00 +32°C° 0 mm 7 mps 710 mmHg 8%
    14:00 +32°C° 0 mm 7 mps 709 mmHg 8%
    15:00 +32°C° 0 mm 6 mps 709 mmHg 8%
    16:00 +30°C° 0 mm 6 mps 709 mmHg 8%
    17:00 +30°C° 0 mm 5 mps 708 mmHg 9%
    18:00 +29°C° 0 mm 4 mps 708 mmHg 9%
    19:00 +27°C° 0 mm 4 mps 708 mmHg 10%
    20:00 +26°C° 0 mm 3 mps 708 mmHg 10%
    21:00 +26°C° 0 mm 3 mps 708 mmHg 10%
    22:00 +26°C° 0 mm 3 mps 708 mmHg 10%
    23:00 +25°C° 0 mm 3 mps 708 mmHg 10%

    25 April, Thursday

    Time Temperature Precipitation Wind Pressure Humidity
    00:00 +25°C° 0 mm 3 mps 708 mmHg 10%
    01:00 +25°C° 0 mm 3 mps 707 mmHg 11%
    02:00 +24°C° 0 mm 3 mps 707 mmHg 11%
    03:00 +24°C° 0 mm 3 mps 707 mmHg 12%
    04:00 +24°C° 0 mm 3 mps 707 mmHg 13%
    05:00 +22°C° 0 mm 3 mps 707 mmHg 14%
    06:00 +25°C° 0 mm 4 mps 708 mmHg 13%
    07:00 +27°C° 0 mm 4 mps 708 mmHg 11%
    08:00 +29°C° 0 mm 5 mps 709 mmHg 9%
    09:00 +30°C° 0 mm 5 mps 709 mmHg 9%
    10:00 +33°C° 0 mm 5 mps 709 mmHg 8%
    11:00 +34°C° 0 mm 5 mps 709 mmHg 7%
    12:00 +34°C° 0 mm 6 mps 709 mmHg 7%
    13:00 +34°C° 0 mm 6 mps 708 mmHg 7%
    14:00 +35°C° 0 mm 6 mps 707 mmHg 7%
    15:00 +34°C° 0 mm 6 mps 707 mmHg 7%
    16:00 +34°C° 0 mm 6 mps 707 mmHg 8%
    17:00 +33°C° 0 mm 6 mps 706 mmHg 8%
    18:00 +32°C° 0 mm 5 mps 706 mmHg 9%
    19:00 +29°C° 0 mm 3 mps 706 mmHg 10%
    20:00 +28°C° 0 mm 2 mps 706 mmHg 11%
    21:00 +28°C° 0 mm 2 mps 706 mmHg 11%
    22:00 +27°C° 0 mm 2 mps 706 mmHg 11%
    23:00 +27°C° 0 mm 2 mps 706 mmHg 11%

    26 April, Friday

    Time Temperature Precipitation Wind Pressure Humidity
    00:00 +26°C° 0 mm 2 mps 705 mmHg 12%
    01:00 +25°C° 0 mm 2 mps 705 mmHg 14%
    02:00 +25°C° 0 mm 2 mps 705 mmHg 15%
    03:00 +24°C° 0 mm 2 mps 705 mmHg 16%
    04:00 +24°C° 0 mm 2 mps 705 mmHg 17%
    05:00 +22°C° 0 mm 3 mps 705 mmHg 18%
    06:00 +25°C° 0 mm 3 mps 705 mmHg 16%
    07:00 +27°C° 0 mm 4 mps 706 mmHg 13%
    08:00 +30°C° 0 mm 4 mps 707 mmHg 11%
    09:00 +32°C° 0 mm 5 mps 707 mmHg 10%
    10:00 +33°C° 0 mm 5 mps 707 mmHg 9%
    11:00 +34°C° 0 mm 5 mps 707 mmHg 8%
    12:00 +35°C° 0 mm 5 mps 706 mmHg 8%
    13:00 +35°C° 0 mm 5 mps 706 mmHg 8%
    14:00 +35°C° 0 mm 5 mps 705 mmHg 8%
    15:00 +35°C° 0 mm 5 mps 705 mmHg 8%
    16:00 +34°C° 0 mm 5 mps 705 mmHg 8%
    17:00 +34°C° 0 mm 5 mps 704 mmHg 8%
    18:00 +32°C° 0 mm 4 mps 705 mmHg 9%
    19:00 +30°C° 0 mm 4 mps 705 mmHg 10%
    20:00 +29°C° 0 mm 3 mps 705 mmHg 12%
    21:00 +28°C° 0 mm 2 mps 705 mmHg 11%
    22:00 +28°C° 0 mm 2 mps 705 mmHg 11%
    23:00 +27°C° 0 mm 2 mps 705 mmHg 10%
    Show more